RH
10 12 12 12 14 18 18 17 16 16 18 24 86 100 100 100 100 100 100 100 100 100 100 100 100 100 100 98 82 95 98 100 78 79 74 100 100 90 71 37 17 16 15 14
9 10 12 12 13 18 20 17 17 18 19 22 31 87 100 100 100 100 100 100 100 100 100 100 100 100 91 100 96 95 99 73 72 85 100 92 45 29 19 16 17 16 15 16
11 13 11 11 13 18 23 20 18 17 20 22 21 32 99 100 100 100 100 100 100 100 100 100 100 96 100 90 82 75 59 60 78 100 73 23 18 17 18 18 18 18 17 24
14 15 14 14 13 17 22 24 21 19 19 20 22 26 71 100 100 100 100 100 100 100 100 100 100 93 96 82 84 48 55 86 100 34 18 18 18 19 20 21 20 21 28 26
11 15 16 15 17 19 22 24 24 21 20 20 18 19 39 94 100 100 100 100 100 100 100 100 99 87 82 82 46 64 92 57 20 22 21 21 21 20 24 23 23 32 31 27
12 12 14 15 16 20 21 23 23 21 20 19 22 24 33 72 90 98 100 100 100 100 100 93 96 78 52 32 28 25 26 27 27 25 23 23 23 24 23 22 30 35 31 34
12 15 15 15 15 16 18 20 22 20 18 17 21 27 35 54 78 86 100 100 100 96 85 76 70 51 41 39 36 35 32 30 29 28 25 25 27 24 23 29 36 34 38 41
15 16 17 17 17 17 18 18 21 20 18 18 24 26 42 48 62 70 73 78 85 86 80 67 56 48 46 41 39 38 35 33 32 31 29 30 27 24 28 37 34 39 41 41
16 18 21 22 20 18 19 19 19 19 19 24 25 30 44 45 53 61 59 66 68 60 50 40 38 36 37 40 41 39 38 34 37 36 32 28 25 32 37 33 37 42 41 43
18 20 22 24 22 20 20 20 19 20 21 19 24 29 31 42 57 61 58 54 46 44 37 31 30 32 35 36 34 33 32 37 36 32 28 27 34 34 33 36 41 45 49 53
18 18 23 23 24 22 21 20 19 21 22 23 27 29 31 31 40 49 50 47 42 37 30 30 32 35 35 32 28 26 31 32 31 30 32 38 31 33 37 44 50 54 58 65
18 18 20 24 23 21 20 21 22 22 22 22 24 27 27 29 35 46 47 42 36 29 28 34 38 40 36 34 27 29 30 31 32 38 39 33 36 41 45 52 64 68 72 73
16 18 19 20 20 21 21 21 24 22 21 22 21 23 27 31 32 37 38 31 28 33 36 35 32 37 42 40 32 30 34 38 46 37 41 44 50 54 57 72 82 90 93 96
22 20 20 23 25 22 22 24 25 23 22 24 23 25 27 32 36 36 34 37 40 40 37 31 31 40 46 37 33 35 45 44 41 55 60 68 70 78 85 88 89 86 66 53
17 19 21 23 22 22 22 22 23 24 23 22 23 25 29 37 40 37 37 39 38 38 34 29 38 41 36 36 38 49 40 44 50 62 74 86 76 68 62 56 54 56 54 51
14 17 20 20 21 23 22 22 23 24 24 26 26 28 31 32 34 31 31 30 37 36 30 35 35 37 35 50 42 45 56 64 74 72 63 72 59 48 47 47 44 45 43 40
14 14 15 20 22 25 26 27 26 25 24 23 26 29 29 33 32 33 37 40 35 34 35 36 37 50 44 46 58 59 56 60 61 50 42 39 38 37 39 43 48 51 49 51
19 17 17 18 22 24 25 27 28 27 27 30 33 30 33 37 40 38 36 33 35 36 43 53 46 43 49 45 46 46 43 40 40 40 41 39 42 44 46 48 56 56 58 59
28 25 22 22 22 24 27 28 31 34 35 37 39 41 42 37 36 36 37 40 46 50 42 41 42 46 42 41 35 34 37 40 46 50 46 46 53 57 63 66 63 66 75 75
39 36 34 30 28 28 28 30 31 33 35 36 37 37 38 41 46 48 45 39 36 41 47 41 35 33 34 41 48 53 51 52 54 48 46 47 57 68 77 88 87 85 81 73
35 35 37 38 38 39 39 39 41 41 43 42 40 40 37 36 37 37 40 41 42 36 30 28 38 41 47 63 58 57 54 43 42 46 61 63 69 67 76 88 98 95 80 74
36 35 36 35 36 34 37 39 41 40 42 38 37 36 36 36 36 35 34 30 26 29 40 52 55 67 78 73 60 59 54 51 58 65 66 75 83 87 91 91 94 97 94 90
46 34 36 44 46 47 44 39 34 36 34 36 44 41 36 32 29 31 42 48 55 58 66 66 79 96 100 82 72 62 56 66 70 77 80 88 93 96 98 100 95 96 93 88
36 38 38 34 31 30 34 38 43 44 49 57 66 68 66 60 51 56 65 70 74 77 82 86 99 100 73 64 72 73 73 63 72 88 98 100 100 100 100 99 90 73 68 79
39 33 35 39 38 38 44 37 29 29 34 48 59 70 76 82 81 76 84 84 83 90 100 100 93 78 89 91 85 78 70 75 92 98 98 100 100 100 100 94 75 56 63 50
34 31 27 27 35 35 35 30 26 27 29 28 33 47 55 76 72 74 69 74 85 93 98 95 100 100 91 90 83 76 88 89 87 91 99 100 99 95 84 77 64 38 35 26
Wind_Speed
108 109 105 97 97 99 93 88 83 77 71 68 68 69 68 66 63 63 63 60 55 51 51 52 51 52 52 55 57 57 56 57 57 58 57 57 58 62 63 64 66 73 75 77
100 104 107 104 101 99 94 90 83 76 71 68 66 65 66 66 66 63 59 56 52 53 56 53 53 55 57 55 56 53 53 54 55 55 55 59 59 58 62 67 72 72 73 69
92 104 104 103 100 98 94 88 82 77 72 70 68 64 60 61 61 60 58 54 54 55 57 56 57 53 53 53 51 51 51 50 51 55 59 58 58 60 66 72 74 77 69 63
90 103 106 104 101 98 94 88 83 81 76 71 67 62 58 56 56 56 55 55 57 57 54 53 52 51 51 50 51 50 48 50 54 59 58 57 59 63 68 75 81 70 62 63
92 103 107 105 101 97 93 91 87 84 77 71 67 63 58 53 51 51 51 52 52 52 49 49 50 48 48 51 49 50 53 54 55 59 60 61 64 68 73 75 78 64 66 53
84 98 103 104 102 99 95 93 89 85 79 72 65 61 58 52 47 46 48 50 50 50 49 47 46 48 46 47 47 49 51 56 60 61 62 64 68 71 74 78 66 65 54 41
79 89 95 99 99 99 98 93 90 86 79 69 64 61 56 51 49 48 49 49 47 47 46 46 45 45 46 49 52 54 57 61 63 64 66 67 72 74 75 66 63 52 41 34
73 80 88 93 96 96 94 91 88 81 74 68 64 59 55 53 52 50 50 49 47 46 46 46 47 48 51 53 56 60 62 64 66 67 69 72 72 75 65 62 53 42 36 31
67 76 83 87 91 92 92 90 84 81 77 72 64 60 60 57 55 53 51 49 49 49 49 49 51 53 56 58 60 63 64 66 68 71 73 71 72 63 61 53 42 35 34 32
66 73 81 87 89 89 88 90 85 81 78 72 65 62 60 60 59 57 54 53 51 51 50 51 54 56 57 59 62 64 65 67 70 71 72 69 58 58 49 40 31 33 33 33
60 70 78 85 87 88 88 86 83 79 76 71 68 64 62 60 60 60 58 56 54 54 54 56 57 58 59 61 63 64 66 68 68 70 63 57 50 41 34 29 30 34 36 39
53 63 72 79 83 85 84 82 79 76 75 73 69 66 64 62 60 59 57 56 55 55 57 58 59 60 62 62 62 64 64 67 68 57 57 45 35 31 32 32 35 38 42 46
46 55 64 74 80 82 79 78 75 74 73 70 68 66 65 63 60 58 56 54 54 58 61 60 60 61 63 66 67 64 67 61 54 47 37 34 33 35 35 38 42 46 50 55
37 47 59 68 72 74 75 75 74 71 70 68 66 64 63 61 59 58 55 57 60 62 62 60 61 62 67 68 65 66 53 53 37 32 33 34 37 40 45 49 53 56 60 63
29 38 47 59 66 68 70 70 68 66 66 64 63 61 61 60 60 59 59 61 62 63 62 60 61 64 64 64 57 51 41 33 33 36 38 43 45 49 54 58 61 64 67 69
24 31 39 48 57 61 62 62 62 61 61 61 60 60 60 57 58 55 54 57 62 64 61 61 61 58 57 47 41 33 32 34 39 44 48 50 54 57 61 63 65 68 71 75
21 24 28 37 46 52 55 57 57 58 57 53 54 58 53 55 51 51 56 61 60 56 56 53 50 44 41 33 32 35 40 44 47 50 55 59 61 65 67 70 72 75 78 79
28 23 23 28 33 39 43 46 47 47 45 50 54 48 51 53 54 52 52 49 47 44 39 40 38 32 33 36 40 42 45 48 50 53 54 57 58 62 64 66 69 72 75 79
38 35 33 30 27 26 27 29 32 34 36 39 41 42 45 43 41 41 35 34 34 35 33 32 32 33 35 37 38 43 46 49 54 58 61 61 62 65 68 69 73 77 80 82
39 38 35 31 28 27 26 25 24 24 25 26 26 26 26 25 25 27 28 27 25 25 27 30 32 32 34 40 45 49 54 57 60 63 66 68 69 72 74 77 83 86 88 88
35 33 32 29 26 25 23 21 19 18 16 15 13 12 12 15 18 20 20 23 28 28 28 31 33 39 43 48 53 57 61 63 65 69 73 74 76 78 81 85 89 93 94 95
28 28 27 26 23 21 19 17 14 11 10 9 11 13 14 16 19 22 24 24 25 30 34 38 41 45 51 57 62 65 66 69 73 76 80 82 84 87 89 93 99 102 102 102
20 20 18 17 17 15 13 10 9 9 5 4 5 7 11 14 18 23 25 28 33 36 41 45 47 53 59 66 70 73 75 77 80 82 86 90 92 96 101 106 108 109 110 108
11 10 10 10 10 8 4 4 5 5 7 11 15 19 23 25 28 32 35 38 41 44 48 51 56 62 71 73 76 78 80 83 85 88 92 95 99 104 106 112 113 111 110 107
4 4 4 5 6 8 11 13 14 15 18 20 24 27 31 34 37 40 43 45 49 53 55 59 67 75 79 82 85 86 88 91 92 96 98 101 103 108 113 113 116 112 110 106
15 16 17 17 18 19 20 23 25 27 29 31 31 33 36 41 44 47 49 52 56 60 64 71 77 83 85 87 91 94 96 99 100 102 105 108 111 117 116 114 113 111 108 107
Wind_Direction
202 206 209 211 212 215 218 221 223 225 227 226 227 228 231 233 235 237 241 245 250 254 254 257 259 266 270 268 275 283 283 282 284 286 287 293 292 295 298 300 300 304 302 300
203 203 204 207 209 212 216 219 222 222 223 226 227 229 230 233 234 238 241 244 247 248 252 257 259 262 270 274 275 277 278 280 284 287 288 293 298 300 304 305 306 308 305 306
199 203 206 206 208 211 213 217 222 223 223 225 227 227 228 231 234 236 239 241 244 248 251 257 260 265 268 270 273 276 280 283 284 283 292 297 303 307 309 310 313 311 308 306
197 202 204 207 208 209 211 214 219 223 224 225 227 229 230 229 232 235 236 238 242 248 253 258 260 263 266 271 277 276 281 282 285 291 295 304 307 308 310 315 314 313 311 312
197 201 203 204 207 209 211 213 216 221 225 227 229 230 229 229 231 234 236 240 245 248 252 256 260 265 269 273 277 280 282 286 292 297 303 307 310 309 312 313 314 311 312 310
201 202 202 204 206 208 211 213 216 220 223 225 228 232 232 230 231 233 236 239 243 246 249 256 259 267 268 275 279 282 287 292 297 302 304 306 309 311 312 312 310 309 307 306
200 202 203 204 206 209 211 213 215 219 223 225 227 230 232 232 233 235 238 242 247 250 254 257 264 269 274 280 285 288 292 296 300 303 307 307 311 310 310 309 306 303 300 303
199 203 203 204 205 210 212 213 215 220 225 226 227 228 231 234 236 237 240 245 250 257 262 266 272 277 281 285 288 291 295 298 300 303 305 307 308 309 306 304 301 294 296 295
199 200 200 203 205 208 211 213 216 218 221 223 225 225 229 234 238 242 245 249 254 260 266 271 276 280 283 287 290 293 295 297 300 302 304 305 307 305 303 301 296 292 296 298
197 198 199 200 204 207 209 212 214 217 221 226 228 227 230 234 237 242 247 252 259 264 267 272 277 281 284 288 290 293 295 298 300 302 303 306 304 301 298 296 294 293 291 291
198 199 199 201 203 206 208 210 212 215 219 223 227 229 232 235 239 243 247 254 259 263 268 273 278 282 285 289 292 294 296 299 301 301 304 303 300 296 295 293 294 292 292 291
199 201 200 201 204 207 209 210 211 216 219 223 227 231 236 238 240 244 249 255 260 265 269 275 281 284 286 290 294 296 297 299 300 301 301 299 297 295 292 285 291 293 291 290
198 202 201 203 205 207 208 210 213 215 219 224 229 233 237 240 243 247 251 258 263 267 272 279 283 287 290 291 295 297 298 298 297 297 294 294 295 294 290 290 292 291 288 289
202 201 202 202 206 208 210 210 212 215 218 222 227 233 238 242 245 251 256 261 265 269 275 281 284 288 290 292 294 295 292 293 290 291 296 298 296 294 291 287 286 289 293 294
193 203 203 203 205 207 209 211 212 215 219 223 228 233 237 241 246 251 256 261 266 273 279 284 286 286 287 289 290 289 288 288 284 290 290 287 287 288 291 292 294 295 295 295
177 188 196 202 205 206 210 212 213 216 221 225 230 235 239 244 249 255 262 268 272 276 280 281 283 284 286 284 285 282 285 287 285 285 291 292 293 295 295 294 293 295 297 299
146 167 179 191 199 205 209 212 215 218 223 228 234 239 246 251 258 264 269 270 271 275 276 278 281 277 279 275 280 280 282 287 291 292 295 296 296 298 302 303 304 305 306 305
105 121 145 165 182 194 204 211 216 222 228 233 240 247 253 257 261 263 261 265 267 270 270 270 273 272 273 279 287 292 295 297 298 301 305 307 306 307 307 307 309 311 312 309
97 107 113 122 140 162 182 196 207 216 223 231 237 242 245 247 249 253 257 257 260 265 264 265 274 281 285 293 303 310 307 306 307 307 309 309 310 310 309 307 309 312 311 310
90 97 105 116 128 142 154 165 177 190 201 213 220 224 228 232 239 247 253 254 259 268 272 275 282 289 303 309 310 310 311 311 309 309 307 306 308 308 309 310 312 311 311 310
78 86 93 99 108 117 127 136 147 157 175 186 201 216 229 237 241 245 256 263 264 267 285 288 299 311 311 309 310 312 314 313 309 307 307 307 307 308 309 308 309 310 312 312
89 91 92 96 98 103 109 116 124 136 155 181 205 222 235 248 257 259 263 271 280 286 294 301 304 305 308 309 309 308 308 308 307 306 306 307 308 309 309 310 310 309 309 308
92 90 92 103 111 119 126 134 150 163 170 212 275 282 288 287 284 288 286 284 286 280 291 299 299 302 301 303 305 307 307 306 306 306 308 308 309 309 310 310 310 308 307 306
90 91 105 119 126 129 139 187 221 248 261 269 275 274 274 279 285 286 288 289 295 297 295 294 295 296 301 301 302 303 303 304 304 305 306 307 307 307 307 308 307 306 304 304
255 267 243 231 245 241 249 254 258 261 258 259 263 268 271 278 285 290 292 294 296 296 294 293 294 298 300 301 301 302 305 306 305 306 305 304 304 304 306 307 308 305 303 302
274 272 274 275 274 274 276 277 275 279 283 283 282 280 278 276 279 282 289 294 294 294 293 294 297 297 298 300 301 303 304 304 304 304 304 304 304 306 306 306 306 304 303 302